Pineville, WV

5:56 PM EST on December 07, 2019 (GMT -0500)
Pineville

Weather History for KI16 - October, 2019

Change the Weather History Date:

Friday, October 11, 2019

  Actual Average (KBKW) Record (KBKW)
Temperature  
Mean Temperature 66 °F -  
Max Temperature 82 °F 63 °F 82 °F (1949)
Min Temperature 51 °F 43 °F 20 °F (1964)
Cooling Degree Days 2    
Growing Degree Days 16 (Base 50)    
Moisture  
Dew Point 54 °F    
Average Humidity 74    
Maximum Humidity 98    
Minimum Humidity 30    
Precipitation  
Precipitation 0.00 in - - ()
Sea Level Pressure  
Sea Level Pressure 30.16 in    
Wind  
Wind Speed - (North)    
Max Wind Speed -    
Max Gust Speed -    
Visibility 10 miles    
Events      
Averages and records for this station are not official NWS values.
T = Trace of Precipitation, MM = Missing Value Source: NWS Daily Summary

Daily Weather History Graph

Daily Weather History Graph

Search for Another Location

Airport or City:

Astronomy

Oct. 11, 2019 Rise Set
Actual Time 7:30 AM EDT 6:54 PM EDT
Civil Twilight 7:04 AM EDT 7:21 PM EDT
Nautical Twilight 6:33 AM EDT 7:51 PM EDT
Astronomical Twilight 6:03 AM EDT 8:21 PM EDT
Moon 6:19 PM EDT (10/11) 5:13 AM EDT (10/11)
Length of Visible Light 12h 16m
Length of Day
11h 24m
Waxing Gibbous, 96% of the Moon is Illuminated
Oct 11
Waxing Gibbous
Oct 13
Full
Oct 21
Last Quarter
Oct 27
New
Nov 4
First Quarter

Hourly Weather History & Observations

Time (EDT) Temp. Dew Point Humidity Pressure Visibility Wind Dir Wind Speed Gust Speed Precip Events Conditions
12:15 AM 59.5 °F 56.3 °F 89% 30.22 in 10.0 mi North - - N/A   Mostly Cloudy
12:35 AM 59.0 °F 55.9 °F 90% 30.22 in 10.0 mi North - - N/A   Mostly Cloudy
12:55 AM 58.5 °F 55.6 °F 90% 30.21 in 10.0 mi North - - N/A   Scattered Clouds
1:15 AM 57.9 °F 55.6 °F 92% 30.21 in 10.0 mi North - - N/A   Scattered Clouds
1:35 AM 57.4 °F 55.0 °F 92% 30.21 in 10.0 mi North - - N/A   Mostly Cloudy
1:55 AM 56.7 °F 54.1 °F 91% 30.21 in 10.0 mi North - - N/A   Scattered Clouds
2:15 AM 55.9 °F 53.8 °F 92% 30.21 in 10.0 mi North - - N/A   Clear
2:35 AM 55.4 °F 53.6 °F 94% 30.21 in 10.0 mi North - - N/A   Clear
2:55 AM 55.0 °F 53.1 °F 93% 30.20 in 10.0 mi North - - N/A   Clear
3:15 AM 54.5 °F 52.5 °F 93% 30.19 in 10.0 mi North - - N/A   Clear
3:35 AM 54.0 °F 52.5 °F 95% 30.19 in 10.0 mi North - - N/A   Clear
3:55 AM 53.8 °F 52.3 °F 95% 30.19 in 10.0 mi North - - N/A   Clear
4:15 AM 53.6 °F 52.2 °F 95% 30.19 in 10.0 mi North - - N/A   Clear
4:35 AM 53.2 °F 52.0 °F 95% 30.19 in 10.0 mi North - - N/A   Clear
4:55 AM 53.1 °F 51.8 °F 95% 30.20 in 10.0 mi North - - N/A   Clear
5:15 AM 52.9 °F 51.6 °F 95% 30.20 in 10.0 mi North - - N/A   Clear
5:35 AM 52.7 °F 51.6 °F 96% 30.20 in 10.0 mi North - - N/A   Clear
5:55 AM 52.2 °F 51.1 °F 96% 30.20 in 10.0 mi North - - N/A   Clear
6:15 AM 52.0 °F 50.7 °F 95% 30.20 in 10.0 mi North - - N/A   Clear
6:35 AM 51.8 °F 50.5 °F 95% 30.20 in 10.0 mi North - - N/A   Clear
6:55 AM 51.8 °F 50.5 °F 95% 30.21 in 10.0 mi North - - N/A   Clear
7:15 AM 51.8 °F 50.9 °F 97% 30.21 in 10.0 mi North - - N/A   Clear
7:35 AM 51.8 °F 51.1 °F 97% 30.21 in 10.0 mi North - - N/A   Clear
7:55 AM 51.6 °F 50.9 °F 97% 30.22 in 10.0 mi North - - N/A   Clear
8:15 AM 51.3 °F 50.7 °F 98% 30.22 in 10.0 mi North - - N/A   Clear
8:35 AM 52.0 °F 51.3 °F 97% 30.23 in 10.0 mi North - - N/A   Clear
8:55 AM 53.8 °F 53.2 °F 98% 30.23 in 10.0 mi North - - N/A   Clear
9:15 AM 55.8 °F 54.9 °F 97% 30.23 in 10.0 mi North - - N/A   Clear
9:35 AM 59.7 °F 55.4 °F 86% 30.23 in 10.0 mi North - - N/A   Clear
9:55 AM 61.5 °F 56.3 °F 83% 30.23 in 10.0 mi North - - N/A   Clear
10:15 AM 65.1 °F 55.0 °F 70% 30.23 in 10.0 mi North - - N/A   Clear
10:35 AM 66.2 °F 54.5 °F 66% 30.23 in 10.0 mi North - - N/A   Clear
10:55 AM 68.5 °F 54.9 °F 62% 30.22 in 10.0 mi North - - N/A   Clear
11:15 AM 70.3 °F 54.1 °F 56% 30.22 in 10.0 mi North - - N/A   Clear
11:35 AM 71.4 °F 54.0 °F 54% 30.21 in 10.0 mi North - - N/A   Clear
11:55 AM 73.4 °F 54.5 °F 51% 30.21 in 10.0 mi North - - N/A   Clear
12:15 PM 72.7 °F 54.0 °F 52% 30.20 in 10.0 mi North - - N/A   Clear
12:35 PM 74.1 °F 54.9 °F 51% 30.19 in 10.0 mi North - - N/A   Clear
12:55 PM 76.5 °F 54.5 °F 46% 30.19 in 10.0 mi North - - N/A   Clear
1:15 PM 77.7 °F 54.0 °F 44% 30.18 in 10.0 mi North - - N/A   Clear
1:35 PM 78.3 °F 53.8 °F 43% 30.16 in 10.0 mi North - - N/A   Clear
1:55 PM 78.4 °F 52.7 °F 41% 30.15 in 10.0 mi North - - N/A   Clear
2:15 PM 79.7 °F 51.6 °F 38% 30.14 in 10.0 mi North - - N/A   Clear
2:35 PM 79.9 °F 51.6 °F 37% 30.14 in 10.0 mi North - - N/A   Clear
2:55 PM 80.8 °F 51.3 °F 36% 30.13 in 10.0 mi North - - N/A   Clear
3:15 PM 80.1 °F 50.9 °F 36% 30.12 in 10.0 mi North - - N/A   Clear
3:35 PM 81.7 °F 49.6 °F 33% 30.11 in 10.0 mi North - - N/A   Clear
3:55 PM 82.0 °F 47.8 °F 30% 30.11 in 10.0 mi North - - N/A   Clear
4:15 PM 82.0 °F 48.2 °F 31% 30.10 in 10.0 mi North - - N/A   Clear
4:35 PM 81.3 °F 48.0 °F 31% 30.10 in 10.0 mi North - - N/A   Clear
4:55 PM 77.0 °F 55.2 °F 47% 30.09 in 10.0 mi North - - N/A   Clear
5:15 PM 75.0 °F 55.6 °F 51% 30.09 in 10.0 mi North - - N/A   Clear
5:35 PM 72.1 °F 54.7 °F 54% 30.09 in 10.0 mi North - - N/A   Clear
5:55 PM 70.3 °F 54.3 °F 57% 30.09 in 10.0 mi North - - N/A   Clear
6:15 PM 69.1 °F 55.4 °F 62% 30.09 in 10.0 mi North - - N/A   Scattered Clouds
6:35 PM 68.5 °F 56.7 °F 66% 30.09 in 10.0 mi North - - N/A   Scattered Clouds
6:55 PM 66.9 °F 55.6 °F 67% 30.09 in 10.0 mi North - - N/A   Clear
7:15 PM 65.5 °F 56.1 °F 72% 30.09 in 10.0 mi North - - N/A   Clear
7:35 PM 64.4 °F 55.6 °F 73% 30.09 in 10.0 mi North - - N/A   Clear
7:55 PM 63.5 °F 55.9 °F 76% 30.09 in 10.0 mi North - - N/A   Clear
8:15 PM 62.6 °F 55.8 °F 78% 30.09 in 10.0 mi North - - N/A   Clear
8:55 PM 61.2 °F 55.4 °F 81% 30.10 in 10.0 mi North - - N/A   Clear
9:15 PM 60.8 °F 55.2 °F 82% 30.10 in 10.0 mi North - - N/A   Clear
9:35 PM 60.4 °F 55.4 °F 83% 30.10 in 10.0 mi North - - N/A   Scattered Clouds
9:55 PM 59.9 °F 55.2 °F 84% 30.10 in 10.0 mi North - - N/A   Scattered Clouds
10:15 PM 59.7 °F 55.4 °F 86% 30.11 in 10.0 mi North - - N/A   Scattered Clouds
10:35 PM 60.1 °F 55.6 °F 85% 30.09 in 10.0 mi North - - N/A   Mostly Cloudy
10:55 PM 60.1 °F 55.6 °F 85% 30.09 in 10.0 mi North - - N/A   Mostly Cloudy
11:15 PM 59.9 °F 55.9 °F 87% 30.09 in 10.0 mi North - - N/A   Mostly Cloudy
11:35 PM 59.7 °F 55.9 °F 87% 30.08 in 10.0 mi North - - N/A   Mostly Cloudy
11:55 PM 59.0 °F 55.6 °F 88% 30.07 in 10.0 mi North - - N/A   Scattered Clouds